sat.trackr.live / text

‹ back to catalog

STARLINK-37260

NORAD 68510 · 2026-068C

PAYLOAD ACTIVE UNKNOWN

§ Identity

Operator
Country
US
Launch date
2026-03-30
Launch site
AFETR
Launch vehicle
Mass (kg)
RCS (m²)

Purposes: comms

External: N2YO · Heavens-Above · Gunter

§ Orbital elements

Epoch: 2026-09-20T02:36:20.754720Z

Period
93.85 min
Inclination
53.1593°
Eccentricity
0.0000857
Mean motion
15.34408524 rev/d
Perigee alt
462.1 km
Apogee alt
463.3 km
Semi-major
6,840.8 km
B*
4.2414e-4
RAAN
299.6114°
Arg perigee
344.4407°
Mean anomaly
15.6570°
Rev number
2,680

§ Raw data

STARLINK-372601 68510U 26068C   26263.10857355  .00013985  00000+0  42414-3 0  99982 68510  53.1593 299.6114 0000857 344.4407  15.6570 15.34408524 26802

JSON: /api/v1/satellites/68510 · /tle

For live sub-satellite position, see the globe view (requires WebGL).

§ Visibility from observer

Set your observer location to see the next 7 days of passes ≥ 10°. The values pass through the URL so the page stays shareable.

No JS? Fill the form by hand. The geolocation button needs JavaScript.